Volver al catálogo

NOAA 17 DEB

ActivoPO
NORAD 48713·DEBRIS·🇺🇸 United States

Lanzado Jun 24, 2002 desde Vandenberg Space Force Base

Loading…

Próximos Pases (próximas 24 horas)

TLE

ActualizadoSource: Space-Track

Época: Sep 14, 2026, 09:21 UTC

1 48713U 02032AW  26257.39011350  .00060904  00000-0  25947-2 0  9992
2 48713  98.9816  53.3822 0024321 356.6453   3.4612 15.22461508293580

Sigue NOAA 17 DEB en tiempo real con AllMySat

Download on the App Store